User: anonymous   Login
Location: Unspecified
(0.0000°N, 0.0000°E)
Time: 00:41:37
(UTC+00:00)
Language:

UNK - Orbit

View from above orbital plane
View from above orbital plane
View from above satellite
View from above satellite

Ground track
Ground track

The orbit data is extracted from the following two-line orbital elements,

1 27945U 03042G   17206.46415524 +.00000004 +00000-0 +94387-5 0  9993
2 27945 097.9488 346.9402 0013365 122.8897 237.3594 14.64741264738209
Epoch (UTC): 25 July 2017 11:08:23
Eccentricity: 0.0013365
inclination: 97.9488°
perigee height: 668 km
apogee height: 687 km
right ascension of ascending node: 346.9402°
argument of perigee: 122.8897°
revolutions per day: 14.64741264
mean anomaly at epoch: 237.3594°
orbit number at epoch: 73820

The dashed part of the orbit path shows where the satellite is in the earth's shadow,  

DLR